Time,TemperatureF,DewpointF,PressureIn,WindDirection,WindDirectionDegrees,WindSpeedMPH,WindSpeedGustMPH,Humidity,HourlyPrecipIn,Conditions,Clouds,dailyrainin,SoftwareType,DateUTC
2013-01-24 00:00:00,50.5,42.2,30.12,NNW,338,0.0,0.0,73,0.00,,---,0.00,VWS V14.00,2013-01-24 05:00:00,
2013-01-24 00:01:00,50.5,42.2,30.12,NNW,338,0.0,0.0,73,0.00,,---,0.00,VWS V14.00,2013-01-24 05:01:00,
2013-01-24 00:06:00,50.5,42.2,30.13,NNW,338,0.0,0.0,73,0.00,,---,0.00,VWS V14.00,2013-01-24 05:06:00,
2013-01-24 00:11:00,50.5,42.2,30.12,NNW,338,0.0,0.0,73,0.00,,---,0.00,VWS V14.00,2013-01-24 05:11:00,
2013-01-24 00:16:00,50.5,42.2,30.12,NNW,338,0.0,0.0,73,0.00,,---,0.00,VWS V14.00,2013-01-24 05:16:00,
2013-01-24 00:21:00,50.3,42.0,30.12,NNW,338,0.0,0.0,73,0.00,,---,0.00,VWS V14.00,2013-01-24 05:21:00,
2013-01-24 00:26:00,50.1,42.2,30.11,NNW,338,0.0,0.0,74,0.00,,---,0.00,VWS V14.00,2013-01-24 05:26:00,
2013-01-24 00:31:00,50.1,42.2,30.11,NNW,338,0.0,0.0,74,0.00,,---,0.00,VWS V14.00,2013-01-24 05:31:00,
2013-01-24 00:36:00,49.8,41.9,30.12,NNW,338,0.0,0.0,74,0.00,,---,0.00,VWS V14.00,2013-01-24 05:36:00,
2013-01-24 00:41:00,49.8,41.9,30.12,NNW,338,0.0,0.0,74,0.00,,---,0.00,VWS V14.00,2013-01-24 05:41:00,
2013-01-24 00:46:00,50.0,42.0,30.12,NNW,338,0.0,0.0,74,0.00,,---,0.00,VWS V14.00,2013-01-24 05:46:00,
2013-01-24 00:51:00,50.0,42.0,30.12,NNW,338,0.0,0.0,74,0.00,,---,0.00,VWS V14.00,2013-01-24 05:51:00,
2013-01-24 00:56:00,49.8,41.9,30.11,NNW,338,0.0,0.0,74,0.00,,---,0.00,VWS V14.00,2013-01-24 05:56:00,
2013-01-24 01:01:00,50.1,42.2,30.11,NNW,338,0.0,0.0,74,0.00,,---,0.00,VWS V14.00,2013-01-24 06:01:00,
2013-01-24 01:06:00,50.1,42.2,30.11,NNW,338,0.0,0.0,74,0.00,,---,0.00,VWS V14.00,2013-01-24 06:06:00,
2013-01-24 01:11:00,50.0,42.0,30.11,NNW,338,0.0,0.0,74,0.00,,---,0.00,VWS V14.00,2013-01-24 06:11:00,
2013-01-24 01:16:00,49.8,41.9,30.11,NNW,338,0.0,0.0,74,0.00,,---,0.00,VWS V14.00,2013-01-24 06:16:00,
2013-01-24 01:21:00,49.8,41.9,30.10,NNW,338,0.0,0.0,74,0.00,,---,0.00,VWS V14.00,2013-01-24 06:21:00,
2013-01-24 01:26:00,49.8,42.2,30.10,NNW,338,0.0,0.0,75,0.00,,---,0.00,VWS V14.00,2013-01-24 06:26:00,
2013-01-24 01:31:00,49.8,42.2,30.10,NNW,338,0.0,0.0,75,0.00,,---,0.00,VWS V14.00,2013-01-24 06:31:00,
2013-01-24 01:36:00,49.8,42.2,30.10,NNW,338,0.0,0.0,75,0.00,,---,0.00,VWS V14.00,2013-01-24 06:36:00,
2013-01-24 01:41:00,49.6,42.0,30.10,NNW,338,0.0,0.0,75,0.00,,---,0.00,VWS V14.00,2013-01-24 06:41:00,
2013-01-24 01:46:00,49.6,42.0,30.09,NNW,338,0.0,0.0,75,0.00,,---,0.00,VWS V14.00,2013-01-24 06:46:00,
2013-01-24 01:51:00,49.6,42.0,30.09,NNW,338,0.0,0.0,75,0.00,,---,0.00,VWS V14.00,2013-01-24 06:51:00,
2013-01-24 01:56:00,49.6,42.0,30.09,NNW,338,0.0,0.0,75,0.00,,---,0.00,VWS V14.00,2013-01-24 06:56:00,
2013-01-24 02:01:00,49.6,42.0,30.09,NNW,338,0.0,0.0,75,0.00,,---,0.00,VWS V14.00,2013-01-24 07:01:00,
2013-01-24 02:06:00,49.4,42.2,30.09,NNW,338,0.0,0.0,76,0.00,,---,0.00,VWS V14.00,2013-01-24 07:06:00,
2013-01-24 02:11:00,49.4,42.2,30.08,NNW,338,0.0,0.0,76,0.00,,---,0.00,VWS V14.00,2013-01-24 07:11:00,
2013-01-24 02:16:00,49.4,42.2,30.09,NNW,338,0.0,0.0,76,0.00,,---,0.00,VWS V14.00,2013-01-24 07:16:00,
2013-01-24 02:21:00,49.4,42.2,30.09,NNW,338,0.0,0.0,76,0.00,,---,0.00,VWS V14.00,2013-01-24 07:21:00,
2013-01-24 02:26:00,49.2,42.0,30.09,NNW,338,0.0,0.0,76,0.00,,---,0.00,VWS V14.00,2013-01-24 07:26:00,
2013-01-24 02:31:00,49.1,41.9,30.08,NNW,338,0.0,0.0,76,0.00,,---,0.00,VWS V14.00,2013-01-24 07:31:00,
2013-01-24 02:36:00,49.1,41.9,30.08,NNW,338,0.0,0.0,76,0.00,,---,0.00,VWS V14.00,2013-01-24 07:36:00,
2013-01-24 02:41:00,49.1,41.9,30.08,NNW,338,0.0,0.0,76,0.00,,---,0.00,VWS V14.00,2013-01-24 07:41:00,
2013-01-24 02:46:00,49.1,41.9,30.08,NNW,338,0.0,0.0,76,0.00,,---,0.00,VWS V14.00,2013-01-24 07:46:00,
2013-01-24 02:51:00,48.9,42.0,30.08,NNW,338,0.0,0.0,77,0.00,,---,0.00,VWS V14.00,2013-01-24 07:51:00,
2013-01-24 02:56:00,48.9,42.0,30.08,NNW,338,0.0,0.0,77,0.00,,---,0.00,VWS V14.00,2013-01-24 07:56:00,
2013-01-24 03:01:00,48.9,42.0,30.08,NNW,338,0.0,0.0,77,0.00,,---,0.00,VWS V14.00,2013-01-24 08:01:00,
2013-01-24 03:06:00,48.9,42.0,30.07,NNW,338,0.0,0.0,77,0.00,,---,0.00,VWS V14.00,2013-01-24 08:06:00,
2013-01-24 03:11:00,48.9,42.0,30.07,NNW,338,0.0,0.0,77,0.00,,---,0.00,VWS V14.00,2013-01-24 08:11:00,
2013-01-24 03:16:00,48.7,41.8,30.07,NNW,338,0.0,0.0,77,0.00,,---,0.00,VWS V14.00,2013-01-24 08:16:00,
2013-01-24 03:21:00,48.7,41.8,30.07,NNW,338,0.0,0.0,77,0.00,,---,0.00,VWS V14.00,2013-01-24 08:21:00,
2013-01-24 03:26:00,48.7,41.8,30.08,NNW,338,0.0,0.0,77,0.00,,---,0.00,VWS V14.00,2013-01-24 08:26:00,
2013-01-24 03:31:00,48.7,41.8,30.07,NNW,338,0.0,0.0,77,0.00,,---,0.00,VWS V14.00,2013-01-24 08:31:00,
2013-01-24 03:36:00,48.5,41.6,30.07,NNW,338,0.0,0.0,77,0.00,,---,0.00,VWS V14.00,2013-01-24 08:36:00,
2013-01-24 03:41:00,48.3,41.4,30.07,NNW,338,0.0,0.0,77,0.00,,---,0.00,VWS V14.00,2013-01-24 08:41:00,
2013-01-24 03:46:00,48.5,42.0,30.07,NNW,338,0.0,0.0,78,0.00,,---,0.00,VWS V14.00,2013-01-24 08:46:00,
2013-01-24 03:50:00,48.7,42.2,30.07,NNW,338,0.0,0.0,78,0.00,,---,0.00,VWS V14.00,2013-01-24 08:50:00,
2013-01-24 03:55:00,48.5,42.0,30.08,NNW,338,0.0,0.0,78,0.00,,---,0.00,VWS V14.00,2013-01-24 08:55:00,
2013-01-24 04:00:00,48.5,42.0,30.08,NNW,338,0.0,0.0,78,0.00,,---,0.00,VWS V14.00,2013-01-24 09:00:00,
2013-01-24 04:05:00,48.3,41.8,30.08,NNW,338,0.0,0.0,78,0.00,,---,0.00,VWS V14.00,2013-01-24 09:05:00,
2013-01-24 04:10:00,48.3,42.1,30.08,NNW,338,0.0,0.0,79,0.00,,---,0.00,VWS V14.00,2013-01-24 09:10:00,
2013-01-24 04:15:00,48.3,42.1,30.08,NNW,338,0.0,0.0,79,0.00,,---,0.00,VWS V14.00,2013-01-24 09:15:00,
2013-01-24 04:20:00,48.3,42.1,30.08,North,0,0.0,0.0,79,0.00,,---,0.00,VWS V14.00,2013-01-24 09:20:00,
2013-01-24 04:25:00,48.3,42.1,30.08,North,0,0.0,0.0,79,0.00,,---,0.00,VWS V14.00,2013-01-24 09:25:00,
2013-01-24 04:30:00,48.3,42.1,30.08,North,0,0.0,0.0,79,0.00,,---,0.00,VWS V14.00,2013-01-24 09:30:00,
2013-01-24 04:35:00,48.3,42.1,30.08,North,0,0.0,0.0,79,0.00,,---,0.00,VWS V14.00,2013-01-24 09:35:00,
2013-01-24 04:40:00,48.3,42.4,30.08,North,0,0.0,0.0,80,0.00,,---,0.00,VWS V14.00,2013-01-24 09:40:00,
2013-01-24 04:45:00,48.5,42.6,30.08,NNE,22,0.0,0.0,80,0.00,,---,0.00,VWS V14.00,2013-01-24 09:45:00,
2013-01-24 04:50:00,48.7,42.8,30.09,NE,45,0.0,0.0,80,0.00,,---,0.00,VWS V14.00,2013-01-24 09:50:00,
2013-01-24 04:55:00,48.9,43.3,30.08,NE,45,0.0,0.0,81,0.00,,---,0.00,VWS V14.00,2013-01-24 09:55:00,
2013-01-24 05:00:00,49.1,43.5,30.08,NE,45,0.0,0.0,81,0.00,,---,0.00,VWS V14.00,2013-01-24 10:00:00,
2013-01-24 05:05:00,49.2,43.6,30.08,NE,45,0.0,0.0,81,0.00,,---,0.00,VWS V14.00,2013-01-24 10:05:00,
2013-01-24 05:10:00,49.2,43.6,30.08,NE,45,0.0,0.0,81,0.00,,---,0.00,VWS V14.00,2013-01-24 10:10:00,
2013-01-24 05:15:00,49.2,43.3,30.08,NE,45,0.0,0.0,80,0.00,,---,0.00,VWS V14.00,2013-01-24 10:15:00,
2013-01-24 05:20:00,49.1,43.2,30.08,NE,45,0.0,0.0,80,0.00,,---,0.00,VWS V14.00,2013-01-24 10:20:00,
2013-01-24 05:25:00,49.1,43.5,30.09,NE,45,0.0,0.0,81,0.00,,---,0.00,VWS V14.00,2013-01-24 10:25:00,
2013-01-24 05:31:00,49.1,43.5,30.10,NE,45,0.0,0.0,81,0.00,,---,0.00,VWS V14.00,2013-01-24 10:31:00,
2013-01-24 05:35:00,49.1,43.5,30.10,NE,45,0.0,0.0,81,0.00,,---,0.00,VWS V14.00,2013-01-24 10:35:00,
2013-01-24 05:40:00,49.2,43.6,30.10,NE,45,0.0,0.0,81,0.00,,---,0.00,VWS V14.00,2013-01-24 10:40:00,
2013-01-24 05:46:00,49.2,43.6,30.10,NE,45,0.0,0.0,81,0.00,,---,0.00,VWS V14.00,2013-01-24 10:46:00,
2013-01-24 05:51:00,49.6,44.0,30.10,NE,45,0.0,0.0,81,0.00,,---,0.00,VWS V14.00,2013-01-24 10:51:00,
2013-01-24 05:56:00,49.6,44.0,30.10,NE,45,0.0,0.0,81,0.00,,---,0.00,VWS V14.00,2013-01-24 10:56:00,
2013-01-24 06:01:00,49.6,44.3,30.10,NE,45,0.0,0.0,82,0.00,,---,0.00,VWS V14.00,2013-01-24 11:01:00,
2013-01-24 06:05:00,49.6,44.3,30.10,NE,45,0.0,0.0,82,0.00,,---,0.00,VWS V14.00,2013-01-24 11:05:00,
2013-01-24 06:10:00,49.8,44.5,30.10,NE,45,0.0,0.0,82,0.00,,---,0.00,VWS V14.00,2013-01-24 11:10:00,
2013-01-24 06:16:00,49.8,44.5,30.10,NE,45,0.0,0.0,82,0.00,,---,0.00,VWS V14.00,2013-01-24 11:16:00,
2013-01-24 06:20:00,49.8,44.5,30.11,NE,45,0.0,0.0,82,0.00,,---,0.00,VWS V14.00,2013-01-24 11:20:00,
2013-01-24 06:26:00,49.8,44.5,30.10,NE,45,0.0,0.0,82,0.00,,---,0.00,VWS V14.00,2013-01-24 11:26:00,
2013-01-24 06:31:00,49.8,44.2,30.10,NE,45,0.0,0.0,81,0.00,,---,0.00,VWS V14.00,2013-01-24 11:31:00,
2013-01-24 06:36:00,49.8,44.2,30.11,NE,45,0.0,0.0,81,0.00,,---,0.00,VWS V14.00,2013-01-24 11:36:00,
2013-01-24 06:41:00,49.8,44.2,30.11,NE,45,0.0,0.0,81,0.00,,---,0.00,VWS V14.00,2013-01-24 11:41:00,
2013-01-24 06:46:00,49.6,43.7,30.11,NE,45,0.0,0.0,80,0.00,,---,0.00,VWS V14.00,2013-01-24 11:46:00,
2013-01-24 06:51:00,49.6,43.7,30.11,NE,45,0.0,0.0,80,0.00,,---,0.00,VWS V14.00,2013-01-24 11:51:00,
2013-01-24 06:56:00,49.6,43.7,30.11,NE,45,0.0,0.0,80,0.00,,---,0.00,VWS V14.00,2013-01-24 11:56:00,
2013-01-24 07:01:00,49.6,43.7,30.11,NE,45,0.0,0.0,80,0.00,,---,0.00,VWS V14.00,2013-01-24 12:01:00,
2013-01-24 07:06:00,49.2,43.3,30.11,NE,45,0.0,0.0,80,0.00,,---,0.00,VWS V14.00,2013-01-24 12:06:00,
2013-01-24 07:11:00,49.2,43.3,30.12,NE,45,0.0,0.0,80,0.00,,---,0.00,VWS V14.00,2013-01-24 12:11:00,
2013-01-24 07:16:00,49.2,43.3,30.12,NE,45,0.0,0.0,80,0.00,,---,0.00,VWS V14.00,2013-01-24 12:16:00,
2013-01-24 07:21:00,49.2,43.3,30.12,NE,45,0.0,0.0,80,0.00,,---,0.00,VWS V14.00,2013-01-24 12:21:00,
2013-01-24 07:26:00,49.2,43.3,30.11,NE,45,0.0,0.0,80,0.00,,---,0.00,VWS V14.00,2013-01-24 12:26:00,
2013-01-24 07:31:00,49.6,43.7,30.11,NE,45,0.0,0.0,80,0.00,,---,0.00,VWS V14.00,2013-01-24 12:31:00,
2013-01-24 07:36:00,49.6,43.7,30.11,NE,45,0.0,0.0,80,0.00,,---,0.00,VWS V14.00,2013-01-24 12:36:00,
2013-01-24 07:41:00,49.6,43.7,30.11,NE,45,0.0,0.0,80,0.00,,---,0.00,VWS V14.00,2013-01-24 12:41:00,
2013-01-24 07:46:00,49.2,43.3,30.12,NE,45,0.0,0.0,80,0.00,,---,0.00,VWS V14.00,2013-01-24 12:46:00,
2013-01-24 07:50:00,49.2,43.3,30.12,NE,45,0.0,0.0,80,0.00,,---,0.00,VWS V14.00,2013-01-24 12:50:00,
2013-01-24 07:55:00,49.4,43.5,30.12,NE,45,0.0,0.0,80,0.00,,---,0.00,VWS V14.00,2013-01-24 12:55:00,
2013-01-24 08:00:00,49.6,43.7,30.13,NE,45,0.0,0.0,80,0.00,,---,0.00,VWS V14.00,2013-01-24 13:00:00,
2013-01-24 08:05:00,49.8,43.9,30.11,NE,45,0.0,0.0,80,0.00,,---,0.00,VWS V14.00,2013-01-24 13:05:00,
2013-01-24 08:10:00,50.1,44.2,30.12,NE,45,0.0,0.0,80,0.00,,---,0.00,VWS V14.00,2013-01-24 13:10:00,
2013-01-24 08:15:00,50.5,44.6,30.12,NE,45,0.0,0.0,80,0.00,,---,0.00,VWS V14.00,2013-01-24 13:15:00,
2013-01-24 08:20:00,51.4,45.8,30.13,NE,45,0.0,0.0,81,0.00,,---,0.00,VWS V14.00,2013-01-24 13:20:00,
2013-01-24 08:25:00,51.9,46.6,30.13,NE,45,0.0,0.0,82,0.00,,---,0.00,VWS V14.00,2013-01-24 13:25:00,
2013-01-24 08:30:00,52.8,47.5,30.13,NE,45,0.0,0.0,82,0.00,,---,0.00,VWS V14.00,2013-01-24 13:30:00,
2013-01-24 08:35:00,53.4,48.0,30.13,ENE,68,2.6,2.6,82,0.00,,---,0.00,VWS V14.00,2013-01-24 13:35:00,
2013-01-24 08:40:00,54.3,48.9,30.13,NE,45,0.0,0.0,82,0.00,,---,0.00,VWS V14.00,2013-01-24 13:40:00,
2013-01-24 08:45:00,55.2,49.5,30.13,NE,45,0.0,0.0,81,0.00,,---,0.00,VWS V14.00,2013-01-24 13:45:00,
2013-01-24 08:50:00,55.7,50.0,30.13,ENE,68,0.0,0.0,81,0.00,,---,0.00,VWS V14.00,2013-01-24 13:50:00,
2013-01-24 08:55:00,56.1,50.4,30.13,NE,45,0.0,0.0,81,0.00,,---,0.00,VWS V14.00,2013-01-24 13:55:00,
2013-01-24 09:00:00,56.8,50.7,30.13,NE,45,0.0,0.0,80,0.00,,---,0.00,VWS V14.00,2013-01-24 14:00:00,
2013-01-24 09:05:00,57.2,51.1,30.14,NE,45,3.1,3.1,80,0.00,,---,0.00,VWS V14.00,2013-01-24 14:05:00,
2013-01-24 09:10:00,57.9,51.4,30.14,NE,45,0.0,0.0,79,0.00,,---,0.00,VWS V14.00,2013-01-24 14:10:00,
2013-01-24 09:15:00,58.4,51.6,30.14,East,90,1.7,1.7,78,0.00,,---,0.00,VWS V14.00,2013-01-24 14:15:00,
2013-01-24 09:20:00,58.8,51.6,30.15,NNE,22,0.0,0.0,77,0.00,,---,0.00,VWS V14.00,2013-01-24 14:20:00,
2013-01-24 09:25:00,59.1,50.8,30.14,NNE,22,0.0,0.0,74,0.00,,---,0.00,VWS V14.00,2013-01-24 14:25:00,
2013-01-24 09:30:00,59.7,50.7,30.14,ENE,68,2.4,2.4,72,0.00,,---,0.00,VWS V14.00,2013-01-24 14:30:00,
2013-01-24 09:35:00,60.2,50.8,30.15,NE,45,4.0,4.0,71,0.00,,---,0.00,VWS V14.00,2013-01-24 14:35:00,
2013-01-24 09:40:00,60.8,51.0,30.14,NE,45,0.0,0.0,70,0.00,,---,0.00,VWS V14.00,2013-01-24 14:40:00,
2013-01-24 09:45:00,61.3,51.1,30.15,North,0,0.0,0.0,69,0.00,,---,0.00,VWS V14.00,2013-01-24 14:45:00,
2013-01-24 09:50:00,61.8,50.7,30.15,NE,45,0.6,0.6,67,0.00,,---,0.00,VWS V14.00,2013-01-24 14:50:00,
2013-01-24 09:55:00,62.4,50.5,30.15,NNE,22,0.0,4.9,65,0.00,,---,0.00,VWS V14.00,2013-01-24 14:55:00,
2013-01-24 10:00:00,62.7,50.4,30.15,ENE,68,5.3,5.3,64,0.00,,---,0.00,VWS V14.00,2013-01-24 15:00:00,
2013-01-24 10:05:00,63.3,50.5,30.15,East,90,2.2,2.2,63,0.00,,---,0.00,VWS V14.00,2013-01-24 15:05:00,
2013-01-24 10:10:00,64.0,50.7,30.15,NE,45,0.0,0.0,62,0.00,,---,0.00,VWS V14.00,2013-01-24 15:10:00,
2013-01-24 10:15:00,64.5,50.3,30.16,NE,45,0.0,0.0,60,0.00,,---,0.00,VWS V14.00,2013-01-24 15:15:00,
2013-01-24 10:20:00,65.1,50.4,30.15,NE,45,5.3,5.3,59,0.00,,---,0.00,VWS V14.00,2013-01-24 15:20:00,
2013-01-24 10:25:00,65.4,49.8,30.16,NE,45,3.1,3.1,57,0.00,,---,0.00,VWS V14.00,2013-01-24 15:25:00,
2013-01-24 10:30:00,65.8,50.2,30.16,North,0,0.0,0.0,57,0.00,,---,0.00,VWS V14.00,2013-01-24 15:30:00,
2013-01-24 10:35:00,66.3,50.6,30.16,North,0,0.0,0.0,57,0.00,,---,0.00,VWS V14.00,2013-01-24 15:35:00,
2013-01-24 10:40:00,66.7,50.0,30.16,NNE,22,0.0,0.0,55,0.00,,---,0.00,VWS V14.00,2013-01-24 15:40:00,
2013-01-24 10:45:00,67.2,50.0,30.16,NE,45,8.7,8.7,54,0.00,,---,0.00,VWS V14.00,2013-01-24 15:45:00,
2013-01-24 10:50:00,67.6,49.9,30.16,North,0,0.0,0.0,53,0.00,,---,0.00,VWS V14.00,2013-01-24 15:50:00,
2013-01-24 10:55:00,67.8,50.1,30.16,ENE,68,4.9,4.9,53,0.00,,---,0.00,VWS V14.00,2013-01-24 15:55:00,
2013-01-24 11:00:00,68.3,50.5,30.16,ENE,68,4.2,4.2,53,0.00,,---,0.00,VWS V14.00,2013-01-24 16:00:00,
2013-01-24 11:05:00,68.9,50.6,30.16,NNW,338,0.0,0.0,52,0.00,,---,0.00,VWS V14.00,2013-01-24 16:05:00,
2013-01-24 11:10:00,69.2,50.3,30.15,NNE,22,0.0,0.0,51,0.00,,---,0.00,VWS V14.00,2013-01-24 16:10:00,
2013-01-24 11:15:00,69.6,50.7,30.15,NE,45,0.0,0.0,51,0.00,,---,0.00,VWS V14.00,2013-01-24 16:15:00,
2013-01-24 11:20:00,69.8,50.3,30.15,NW,315,0.0,0.0,50,0.00,,---,0.00,VWS V14.00,2013-01-24 16:20:00,
2013-01-24 11:25:00,70.1,50.6,30.14,NE,45,2.6,2.6,50,0.00,,---,0.00,VWS V14.00,2013-01-24 16:25:00,
2013-01-24 11:30:00,70.3,50.3,30.14,NE,45,1.7,1.7,49,0.00,,---,0.00,VWS V14.00,2013-01-24 16:30:00,
2013-01-24 11:35:00,70.7,50.6,30.13,NE,45,8.5,8.5,49,0.00,,---,0.00,VWS V14.00,2013-01-24 16:35:00,
2013-01-24 11:40:00,70.8,50.2,30.14,ENE,68,4.0,4.0,48,0.00,,---,0.00,VWS V14.00,2013-01-24 16:40:00,
2013-01-24 11:45:00,71.2,50.5,30.14,ENE,68,1.5,1.5,48,0.00,,---,0.00,VWS V14.00,2013-01-24 16:45:00,
2013-01-24 11:50:00,71.4,50.1,30.13,ENE,68,0.0,0.0,47,0.00,,---,0.00,VWS V14.00,2013-01-24 16:50:00,
2013-01-24 11:55:00,71.7,50.4,30.13,NE,45,0.0,0.0,47,0.00,,---,0.00,VWS V14.00,2013-01-24 16:55:00,
2013-01-24 12:00:00,71.9,50.6,30.13,NNW,338,0.0,0.0,47,0.00,,---,0.00,VWS V14.00,2013-01-24 17:00:00,
2013-01-24 12:05:00,72.3,49.8,30.13,NE,45,0.0,0.0,45,0.00,,---,0.00,VWS V14.00,2013-01-24 17:05:00,
2013-01-24 12:10:00,72.6,50.7,30.13,NE,45,3.1,3.1,46,0.00,,---,0.00,VWS V14.00,2013-01-24 17:10:00,
2013-01-24 12:15:00,72.6,48.8,30.13,ENE,68,7.3,7.3,43,0.00,,---,0.00,VWS V14.00,2013-01-24 17:15:00,
2013-01-24 12:20:00,72.5,48.8,30.13,ENE,68,9.1,9.1,43,0.00,,---,0.00,VWS V14.00,2013-01-24 17:20:00,
2013-01-24 12:25:00,72.6,48.8,30.13,ENE,68,4.0,4.0,43,0.00,,---,0.00,VWS V14.00,2013-01-24 17:25:00,
2013-01-24 12:30:00,72.8,49.0,30.12,NE,45,1.7,1.7,43,0.00,,---,0.00,VWS V14.00,2013-01-24 17:30:00,
2013-01-24 12:35:00,73.2,48.8,30.12,NNE,22,0.0,0.0,42,0.00,,---,0.00,VWS V14.00,2013-01-24 17:35:00,
2013-01-24 12:40:00,73.4,48.9,30.12,ENE,68,6.2,6.2,42,0.00,,---,0.00,VWS V14.00,2013-01-24 17:40:00,
2013-01-24 12:45:00,73.2,49.4,30.11,East,90,0.0,0.0,43,0.00,,---,0.00,VWS V14.00,2013-01-24 17:45:00,
2013-01-24 12:50:00,73.5,49.0,30.11,NE,45,0.0,0.0,42,0.00,,---,0.00,VWS V14.00,2013-01-24 17:50:00,
2013-01-24 12:55:00,73.7,49.2,30.11,North,0,2.0,2.0,42,0.00,,---,0.00,VWS V14.00,2013-01-24 17:55:00,
2013-01-24 13:00:00,73.9,48.7,30.11,NNW,338,0.0,0.0,41,0.00,,---,0.00,VWS V14.00,2013-01-24 18:00:00,
2013-01-24 13:05:00,73.9,48.7,30.10,NE,45,6.2,6.2,41,0.00,,---,0.00,VWS V14.00,2013-01-24 18:05:00,
2013-01-24 13:10:00,73.7,48.6,30.10,NNW,338,0.0,0.0,41,0.00,,---,0.00,VWS V14.00,2013-01-24 18:10:00,
2013-01-24 13:15:00,73.7,48.6,30.10,NNW,338,0.0,0.0,41,0.00,,---,0.00,VWS V14.00,2013-01-24 18:15:00,
2013-01-24 13:20:00,73.5,48.4,30.09,NNE,22,2.0,2.0,41,0.00,,---,0.00,VWS V14.00,2013-01-24 18:20:00,
2013-01-24 13:25:00,73.9,49.4,30.09,NE,45,4.2,4.2,42,0.00,,---,0.00,VWS V14.00,2013-01-24 18:25:00,
2013-01-24 13:30:00,74.1,49.6,30.08,NW,315,2.9,2.9,42,0.00,,---,0.00,VWS V14.00,2013-01-24 18:30:00,
2013-01-24 13:35:00,73.7,49.2,30.09,NW,315,0.8,0.8,42,0.00,,---,0.00,VWS V14.00,2013-01-24 18:35:00,
2013-01-24 13:40:00,73.5,49.7,30.08,North,0,0.0,0.0,43,0.00,,---,0.00,VWS V14.00,2013-01-24 18:40:00,
2013-01-24 13:45:00,73.4,49.6,30.08,NE,45,5.3,5.3,43,0.00,,---,0.00,VWS V14.00,2013-01-24 18:45:00,
2013-01-24 13:50:00,73.5,49.7,30.08,NNE,22,2.2,2.2,43,0.00,,---,0.00,VWS V14.00,2013-01-24 18:50:00,
2013-01-24 13:55:00,73.7,49.8,30.08,ENE,68,4.9,4.9,43,0.00,,---,0.00,VWS V14.00,2013-01-24 18:55:00,
2013-01-24 14:00:00,73.7,49.8,30.08,NNW,338,4.2,4.2,43,0.00,,---,0.00,VWS V14.00,2013-01-24 19:00:00,
2013-01-24 14:05:00,73.5,49.7,30.08,North,0,0.0,0.0,43,0.00,,---,0.00,VWS V14.00,2013-01-24 19:05:00,
2013-01-24 14:10:00,73.2,50.0,30.08,NW,315,2.9,2.9,44,0.00,,---,0.00,VWS V14.00,2013-01-24 19:10:00,
2013-01-24 14:15:00,73.2,50.0,30.08,North,0,0.0,0.0,44,0.00,,---,0.00,VWS V14.00,2013-01-24 19:15:00,
2013-01-24 14:20:00,73.2,50.0,30.07,NE,45,8.0,8.0,44,0.00,,---,0.00,VWS V14.00,2013-01-24 19:20:00,
2013-01-24 14:25:00,73.2,50.0,30.07,NNW,338,0.0,0.0,44,0.00,,---,0.00,VWS V14.00,2013-01-24 19:25:00,
2013-01-24 14:30:00,72.6,49.5,30.08,NNE,22,0.0,0.0,44,0.00,,---,0.00,VWS V14.00,2013-01-24 19:30:00,
2013-01-24 14:35:00,72.5,49.4,30.08,NE,45,2.9,2.9,44,0.00,,---,0.00,VWS V14.00,2013-01-24 19:35:00,
2013-01-24 14:40:00,72.3,49.8,30.07,NW,315,2.2,2.2,45,0.00,,---,0.00,VWS V14.00,2013-01-24 19:40:00,
2013-01-24 14:45:00,72.3,49.8,30.07,North,0,0.0,0.0,45,0.00,,---,0.00,VWS V14.00,2013-01-24 19:45:00,
2013-01-24 14:50:00,72.3,49.2,30.07,NE,45,0.0,0.0,44,0.00,,---,0.00,VWS V14.00,2013-01-24 19:50:00,
2013-01-24 14:55:00,71.9,49.4,30.07,NNE,22,0.0,0.0,45,0.00,,---,0.00,VWS V14.00,2013-01-24 19:55:00,
2013-01-24 15:00:00,72.1,49.0,30.07,NNW,338,0.0,0.0,44,0.00,,---,0.00,VWS V14.00,2013-01-24 20:00:00,
2013-01-24 15:05:00,72.1,49.0,30.07,NE,45,1.5,1.5,44,0.00,,---,0.00,VWS V14.00,2013-01-24 20:05:00,
2013-01-24 15:10:00,72.1,49.0,30.07,NNW,338,0.0,0.0,44,0.00,,---,0.00,VWS V14.00,2013-01-24 20:10:00,
2013-01-24 15:15:00,72.1,49.0,30.07,NNW,338,1.3,1.3,44,0.00,,---,0.00,VWS V14.00,2013-01-24 20:15:00,
2013-01-24 15:20:00,71.4,48.4,30.07,North,0,0.0,0.0,44,0.00,,---,0.00,VWS V14.00,2013-01-24 20:20:00,
2013-01-24 15:25:00,71.2,48.2,30.07,North,0,1.1,1.1,44,0.00,,---,0.00,VWS V14.00,2013-01-24 20:25:00,
2013-01-24 15:30:00,70.8,48.4,30.07,NW,315,5.5,5.5,45,0.00,,---,0.00,VWS V14.00,2013-01-24 20:30:00,
2013-01-24 15:35:00,70.7,48.3,30.07,WNW,292,2.9,2.9,45,0.00,,---,0.00,VWS V14.00,2013-01-24 20:35:00,
2013-01-24 15:40:00,70.7,48.3,30.07,North,0,2.2,2.2,45,0.00,,---,0.00,VWS V14.00,2013-01-24 20:40:00,
2013-01-24 15:45:00,70.7,48.3,30.07,NNW,338,2.2,2.2,45,0.00,,---,0.00,VWS V14.00,2013-01-24 20:45:00,
2013-01-24 15:50:00,70.5,48.8,30.07,NE,45,0.0,0.0,46,0.00,,---,0.00,VWS V14.00,2013-01-24 20:50:00,
2013-01-24 15:55:00,70.5,48.8,30.07,NW,315,0.0,0.0,46,0.00,,---,0.00,VWS V14.00,2013-01-24 20:55:00,
2013-01-24 16:00:00,70.3,49.1,30.08,NNW,338,0.0,0.0,47,0.00,,---,0.00,VWS V14.00,2013-01-24 21:00:00,
2013-01-24 16:05:00,70.3,49.7,30.07,NNW,338,2.2,2.2,48,0.00,,---,0.00,VWS V14.00,2013-01-24 21:05:00,
2013-01-24 16:10:00,70.3,50.3,30.07,NNW,338,0.0,0.0,49,0.00,,---,0.00,VWS V14.00,2013-01-24 21:10:00,
2013-01-24 16:15:00,69.9,49.9,30.08,NNW,338,0.0,0.0,49,0.00,,---,0.00,VWS V14.00,2013-01-24 21:15:00,
2013-01-24 16:20:00,69.8,50.3,30.08,North,0,0.0,0.0,50,0.00,,---,0.00,VWS V14.00,2013-01-24 21:20:00,
2013-01-24 16:25:00,69.6,50.7,30.08,North,0,0.0,0.0,51,0.00,,---,0.00,VWS V14.00,2013-01-24 21:25:00,
2013-01-24 16:30:00,69.6,50.7,30.08,North,0,0.0,0.0,51,0.00,,---,0.00,VWS V14.00,2013-01-24 21:30:00,
2013-01-24 16:35:00,69.2,50.3,30.08,NNW,338,0.0,0.0,51,0.00,,---,0.00,VWS V14.00,2013-01-24 21:35:00,
2013-01-24 16:40:00,69.0,50.7,30.08,NNW,338,0.0,0.0,52,0.00,,---,0.00,VWS V14.00,2013-01-24 21:40:00,
2013-01-24 16:45:00,68.9,50.6,30.08,North,0,0.0,0.0,52,0.00,,---,0.00,VWS V14.00,2013-01-24 21:45:00,
2013-01-24 16:50:00,68.7,50.4,30.08,North,0,0.0,0.0,52,0.00,,---,0.00,VWS V14.00,2013-01-24 21:50:00,
2013-01-24 16:55:00,68.5,50.7,30.08,NNW,338,0.0,0.0,53,0.00,,---,0.00,VWS V14.00,2013-01-24 21:55:00,
2013-01-24 17:00:00,68.3,50.5,30.08,ENE,68,1.1,1.1,53,0.00,,---,0.00,VWS V14.00,2013-01-24 22:00:00,
2013-01-24 17:04:00,68.1,50.8,30.08,NNW,338,0.0,0.0,54,0.00,,---,0.00,VWS V14.00,2013-01-24 22:04:00,
2013-01-24 17:09:00,67.8,50.6,30.08,North,0,0.0,0.0,54,0.00,,---,0.00,VWS V14.00,2013-01-24 22:09:00,
2013-01-24 17:14:00,67.8,51.1,30.07,NNE,22,0.0,0.0,55,0.00,,---,0.00,VWS V14.00,2013-01-24 22:14:00,
2013-01-24 17:19:00,67.6,50.9,30.08,NNW,338,0.0,0.0,55,0.00,,---,0.00,VWS V14.00,2013-01-24 22:19:00,
2013-01-24 17:24:00,67.2,51.0,30.08,NE,45,0.0,0.0,56,0.00,,---,0.00,VWS V14.00,2013-01-24 22:24:00,
2013-01-24 17:29:00,67.1,50.9,30.08,NW,315,0.0,0.0,56,0.00,,---,0.00,VWS V14.00,2013-01-24 22:29:00,
2013-01-24 17:34:00,66.7,51.0,30.08,NNW,338,0.0,0.0,57,0.00,,---,0.00,VWS V14.00,2013-01-24 22:34:00,
2013-01-24 17:39:00,66.7,51.0,30.08,North,0,0.0,0.0,57,0.00,,---,0.00,VWS V14.00,2013-01-24 22:39:00,
2013-01-24 17:44:00,66.2,51.0,30.08,NNW,338,0.0,0.0,58,0.00,,---,0.00,VWS V14.00,2013-01-24 22:44:00,
2013-01-24 17:49:00,66.0,51.3,30.07,North,0,0.0,0.0,59,0.00,,---,0.00,VWS V14.00,2013-01-24 22:49:00,
2013-01-24 17:54:00,65.6,50.9,30.07,NNE,22,0.0,0.0,59,0.00,,---,0.00,VWS V14.00,2013-01-24 22:54:00,
2013-01-24 17:59:00,65.3,51.1,30.08,North,0,0.0,0.0,60,0.00,,---,0.00,VWS V14.00,2013-01-24 22:59:00,
2013-01-24 18:04:00,64.9,50.7,30.08,North,0,0.0,0.0,60,0.00,,---,0.00,VWS V14.00,2013-01-24 23:04:00,
2013-01-24 18:09:00,64.5,50.8,30.08,North,0,0.0,0.0,61,0.00,,---,0.00,VWS V14.00,2013-01-24 23:09:00,
2013-01-24 18:14:00,64.2,50.9,30.08,NNE,22,0.0,0.0,62,0.00,,---,0.00,VWS V14.00,2013-01-24 23:14:00,
2013-01-24 18:19:00,64.0,51.2,30.08,North,0,0.0,0.0,63,0.00,,---,0.00,VWS V14.00,2013-01-24 23:19:00,
2013-01-24 18:24:00,63.6,51.2,30.08,North,0,0.0,0.0,64,0.00,,---,0.00,VWS V14.00,2013-01-24 23:24:00,
2013-01-24 18:29:00,63.3,50.9,30.08,North,0,0.0,0.0,64,0.00,,---,0.00,VWS V14.00,2013-01-24 23:29:00,
2013-01-24 18:34:00,63.1,50.7,30.08,North,0,0.0,0.0,64,0.00,,---,0.00,VWS V14.00,2013-01-24 23:34:00,
2013-01-24 18:39:00,62.9,51.0,30.08,North,0,0.0,0.0,65,0.00,,---,0.00,VWS V14.00,2013-01-24 23:39:00,
2013-01-24 18:44:00,62.7,51.2,30.08,NW,315,0.0,0.0,66,0.00,,---,0.00,VWS V14.00,2013-01-24 23:44:00,
2013-01-24 18:49:00,62.4,50.9,30.09,NW,315,0.0,0.0,66,0.00,,---,0.00,VWS V14.00,2013-01-24 23:49:00,
2013-01-24 18:54:00,62.4,51.3,30.08,NW,315,0.0,0.0,67,0.00,,---,0.00,VWS V14.00,2013-01-24 23:54:00,
2013-01-24 18:59:00,62.2,51.5,30.09,NW,315,0.0,0.0,68,0.00,,---,0.00,VWS V14.00,2013-01-24 23:59:00,
2013-01-24 19:04:00,62.2,51.5,30.09,NW,315,0.0,0.0,68,0.00,,---,0.00,VWS V14.00,2013-01-25 00:04:00,
2013-01-24 19:09:00,61.8,51.1,30.09,NW,315,0.0,0.0,68,0.00,,---,0.00,VWS V14.00,2013-01-25 00:09:00,
2013-01-24 19:14:00,61.7,51.4,30.09,NW,315,0.0,0.0,69,0.00,,---,0.00,VWS V14.00,2013-01-25 00:14:00,
2013-01-24 19:19:00,61.5,51.2,30.10,NW,315,0.0,0.0,69,0.00,,---,0.00,VWS V14.00,2013-01-25 00:19:00,
2013-01-24 19:24:00,61.5,51.2,30.09,ENE,68,0.0,0.0,69,0.00,,---,0.00,VWS V14.00,2013-01-25 00:24:00,
2013-01-24 19:29:00,61.3,51.1,30.10,ENE,68,0.0,0.0,69,0.00,,---,0.00,VWS V14.00,2013-01-25 00:29:00,
2013-01-24 19:34:00,61.3,51.5,30.09,ENE,68,0.0,0.0,70,0.00,,---,0.00,VWS V14.00,2013-01-25 00:34:00,
2013-01-24 19:39:00,60.9,51.1,30.10,ENE,68,0.0,0.0,70,0.00,,---,0.00,VWS V14.00,2013-01-25 00:39:00,
2013-01-24 19:44:00,60.9,51.1,30.10,ENE,68,0.0,0.0,70,0.00,,---,0.00,VWS V14.00,2013-01-25 00:44:00,
2013-01-24 19:49:00,60.6,50.8,30.10,ENE,68,0.0,0.0,70,0.00,,---,0.00,VWS V14.00,2013-01-25 00:49:00,
2013-01-24 19:54:00,60.6,51.2,30.09,ENE,68,0.0,0.0,71,0.00,,---,0.00,VWS V14.00,2013-01-25 00:54:00,
2013-01-24 19:59:00,60.6,51.2,30.09,ENE,68,0.0,0.0,71,0.00,,---,0.00,VWS V14.00,2013-01-25 00:59:00,
2013-01-24 20:04:00,60.4,51.0,30.10,ENE,68,0.0,0.0,71,0.00,,---,0.00,VWS V14.00,2013-01-25 01:04:00,
2013-01-24 20:09:00,60.4,51.3,30.09,ENE,68,0.0,0.0,72,0.00,,---,0.00,VWS V14.00,2013-01-25 01:09:00,
2013-01-24 20:14:00,60.4,51.3,30.10,ENE,68,0.0,0.0,72,0.00,,---,0.00,VWS V14.00,2013-01-25 01:14:00,
2013-01-24 20:19:00,60.0,51.0,30.10,ENE,68,0.0,0.0,72,0.00,,---,0.00,VWS V14.00,2013-01-25 01:19:00,
2013-01-24 20:24:00,59.9,50.9,30.10,ENE,68,0.0,0.0,72,0.00,,---,0.00,VWS V14.00,2013-01-25 01:24:00,
2013-01-24 20:29:00,59.5,50.5,30.10,ENE,68,0.0,0.0,72,0.00,,---,0.00,VWS V14.00,2013-01-25 01:29:00,
2013-01-24 20:34:00,59.3,50.3,30.10,ENE,68,0.0,0.0,72,0.00,,---,0.00,VWS V14.00,2013-01-25 01:34:00,
2013-01-24 20:39:00,58.8,50.2,30.10,ENE,68,0.0,0.0,73,0.00,,---,0.00,VWS V14.00,2013-01-25 01:39:00,
2013-01-24 20:44:00,58.8,50.2,30.09,ENE,68,0.0,0.0,73,0.00,,---,0.00,VWS V14.00,2013-01-25 01:44:00,
2013-01-24 20:49:00,58.6,50.3,30.10,ENE,68,0.0,0.0,74,0.00,,---,0.00,VWS V14.00,2013-01-25 01:49:00,
2013-01-24 20:54:00,58.1,49.9,30.10,ENE,68,0.0,0.0,74,0.00,,---,0.00,VWS V14.00,2013-01-25 01:54:00,
2013-01-24 20:59:00,57.9,49.7,30.10,ENE,68,0.0,0.0,74,0.00,,---,0.00,VWS V14.00,2013-01-25 01:59:00,
2013-01-24 21:04:00,57.7,49.8,30.09,ENE,68,0.0,0.0,75,0.00,,---,0.00,VWS V14.00,2013-01-25 02:04:00,
2013-01-24 21:09:00,57.5,49.7,30.09,ENE,68,0.0,0.0,75,0.00,,---,0.00,VWS V14.00,2013-01-25 02:09:00,
2013-01-24 21:14:00,57.3,49.5,30.09,ENE,68,0.0,0.0,75,0.00,,---,0.00,VWS V14.00,2013-01-25 02:14:00,
2013-01-24 21:19:00,57.0,49.5,30.10,ENE,68,0.0,0.0,76,0.00,,---,0.00,VWS V14.00,2013-01-25 02:19:00,
2013-01-24 21:24:00,56.8,49.3,30.10,ENE,68,0.0,0.0,76,0.00,,---,0.00,VWS V14.00,2013-01-25 02:24:00,
2013-01-24 21:29:00,56.8,49.3,30.10,ENE,68,0.0,0.0,76,0.00,,---,0.00,VWS V14.00,2013-01-25 02:29:00,
2013-01-24 21:34:00,56.4,48.9,30.10,ENE,68,0.0,0.0,76,0.00,,---,0.00,VWS V14.00,2013-01-25 02:34:00,
2013-01-24 21:39:00,56.4,49.3,30.09,ENE,68,0.0,0.0,77,0.00,,---,0.00,VWS V14.00,2013-01-25 02:39:00,
2013-01-24 21:44:00,56.3,49.2,30.10,ENE,68,0.0,0.0,77,0.00,,---,0.00,VWS V14.00,2013-01-25 02:44:00,
2013-01-24 21:49:00,56.1,49.0,30.10,ENE,68,0.0,0.0,77,0.00,,---,0.00,VWS V14.00,2013-01-25 02:49:00,
2013-01-24 21:54:00,55.9,49.2,30.10,ENE,68,0.0,0.0,78,0.00,,---,0.00,VWS V14.00,2013-01-25 02:54:00,
2013-01-24 21:59:00,55.9,49.2,30.10,ENE,68,0.0,0.0,78,0.00,,---,0.00,VWS V14.00,2013-01-25 02:59:00,
2013-01-24 22:04:00,55.7,49.0,30.10,ENE,68,0.0,0.0,78,0.00,,---,0.00,VWS V14.00,2013-01-25 03:04:00,
2013-01-24 22:09:00,55.7,48.6,30.10,ENE,68,0.0,0.0,77,0.00,,---,0.00,VWS V14.00,2013-01-25 03:09:00,
2013-01-24 22:14:00,55.4,48.7,30.10,ENE,68,0.0,0.0,78,0.00,,---,0.00,VWS V14.00,2013-01-25 03:14:00,
2013-01-24 22:19:00,55.2,48.5,30.10,ENE,68,0.0,0.0,78,0.00,,---,0.00,VWS V14.00,2013-01-25 03:19:00,
2013-01-24 22:24:00,55.2,48.5,30.10,ENE,68,0.0,0.0,78,0.00,,---,0.00,VWS V14.00,2013-01-25 03:24:00,
2013-01-24 22:29:00,55.0,48.3,30.10,ENE,68,0.0,0.0,78,0.00,,---,0.00,VWS V14.00,2013-01-25 03:29:00,
2013-01-24 22:34:00,54.8,48.1,30.10,ENE,68,0.0,0.0,78,0.00,,---,0.00,VWS V14.00,2013-01-25 03:34:00,
2013-01-24 22:39:00,54.6,48.2,30.10,ENE,68,0.0,0.0,79,0.00,,---,0.00,VWS V14.00,2013-01-25 03:39:00,
2013-01-24 22:44:00,54.6,48.2,30.10,ENE,68,0.0,0.0,79,0.00,,---,0.00,VWS V14.00,2013-01-25 03:44:00,
2013-01-24 22:49:00,54.5,48.1,30.10,ENE,68,0.0,0.0,79,0.00,,---,0.00,VWS V14.00,2013-01-25 03:49:00,
2013-01-24 22:54:00,54.3,47.9,30.11,ENE,68,0.0,0.0,79,0.00,,---,0.00,VWS V14.00,2013-01-25 03:54:00,
2013-01-24 22:59:00,54.3,47.9,30.11,ENE,68,0.0,0.0,79,0.00,,---,0.00,VWS V14.00,2013-01-25 03:59:00,
2013-01-24 23:04:00,54.3,47.9,30.11,ENE,68,0.0,0.0,79,0.00,,---,0.00,VWS V14.00,2013-01-25 04:04:00,
2013-01-24 23:09:00,54.1,48.1,30.10,ENE,68,0.0,0.0,80,0.00,,---,0.00,VWS V14.00,2013-01-25 04:09:00,
2013-01-24 23:13:00,54.1,48.1,30.11,ENE,68,0.0,0.0,80,0.00,,---,0.00,VWS V14.00,2013-01-25 04:13:00,
2013-01-24 23:18:00,54.1,48.1,30.11,ENE,68,0.0,0.0,80,0.00,,---,0.00,VWS V14.00,2013-01-25 04:18:00,
2013-01-24 23:23:00,53.9,47.9,30.11,ENE,68,0.0,0.0,80,0.00,,---,0.00,VWS V14.00,2013-01-25 04:23:00,
2013-01-24 23:28:00,53.9,47.9,30.11,ENE,68,0.0,0.0,80,0.00,,---,0.00,VWS V14.00,2013-01-25 04:28:00,
2013-01-24 23:33:00,53.7,47.7,30.10,ENE,68,0.0,0.0,80,0.00,,---,0.00,VWS V14.00,2013-01-25 04:33:00,
2013-01-24 23:38:00,53.7,47.7,30.10,ENE,68,0.0,0.0,80,0.00,,---,0.00,VWS V14.00,2013-01-25 04:38:00,
2013-01-24 23:43:00,53.7,47.7,30.10,ENE,68,0.0,0.0,80,0.00,,---,0.00,VWS V14.00,2013-01-25 04:43:00,
2013-01-24 23:48:00,53.7,47.7,30.11,ENE,68,0.0,0.0,80,0.00,,---,0.00,VWS V14.00,2013-01-25 04:48:00,
2013-01-24 23:53:00,53.4,47.4,30.11,ENE,68,0.0,0.0,80,0.00,,---,0.00,VWS V14.00,2013-01-25 04:53:00,
2013-01-24 23:58:00,53.4,47.4,30.11,ENE,68,0.0,0.0,80,0.00,,---,0.00,VWS V14.00,2013-01-25 04:58:00,